Location: Mexico
(19.4000°N, 99.1500°W)
Time: 14:06:33
(UTC-06:00)

ISS - Pass Details

Date: 27 March 2017
Orbit: 399 x 409 km, 51.6° (Epoch: 24 March)

Event Time Altitude Azimuth Distance (km) Brightness Sun altitude
Rises 19:52:02 0° 259° (W) 2,294 1.4 -15.5°
Reaches altitude 10° 19:55:22 10° 297° (WNW) 1,440 0.1 -16.3°
Maximum altitude 19:56:24 11° 315° (NW) 1,372 -0.4 -16.5°
Drops below altitude 10° 19:57:27 10° 334° (NNW) 1,442 -0.6 -16.7°
Sets 20:00:48 0° 12° (NNE) 2,305 0.0 -17.5°
